[[{"header":{"parameterUnit":"m.s-1","parameterCategory":1,"la1":30.2992,"la2":30.254,"lo1":-89.0895,"lo2":-89.0443,"dy":0.0025,"dx":0.0025,"nx":19,"ny":19,"refTime":"2026-03-30T03:00:00:Z","depth":0,"parameterNumber":2,"parameterNumberName":"U-component_of_WINDS"},"data":[0,0,0,-6.7212,-6.7214,-6.731,-6.731,-6.7479,-6.7481,0,0,0,0,0,0,0,0,0,0,0,-6.7212,-6.7214,-6.7211,-6.7215,-6.731,-6.731,-6.7478,-6.7481,0,0,0,0,0,0,0,0,0,0,0,-6.7211,-6.7214,-6.7217,-6.7215,-6.731,-6.731,-6.7478,-6.7389,0,0,0,0,0,0,0,0,0,0,-6.7288,-6.7317,-6.7213,-6.7217,-6.7216,-6.731,-6.731,-6.7384,-6.7395,-6.7456,0,-6.7518,0,-6.7503,-6.7495,-6.7496,0,0,0,-6.7193,-6.7309,-6.7308,-6.7217,-6.7217,-6.731,-6.7261,-6.7389,-6.7402,-6.747,-6.752,-6.7525,-6.7506,-6.7496,-6.7497,-6.7924,-6.7927,0,0,-6.7187,-6.7245,-6.73,-6.7318,-6.7307,-6.7258,-6.7264,-6.7396,-6.7454,-6.7521,-6.7528,-6.7508,-6.7498,-6.7499,-6.7921,-6.7925,0,0,0,-6.7187,-6.7242,-6.7237,-6.7312,-6.7326,-6.7261,-6.7268,-6.7448,-6.7442,-6.753,-6.751,-6.7499,-6.7502,-6.7918,-6.7923,-6.8127,0,0,0,-6.7183,-6.7242,-6.7236,-6.7272,-6.7325,-6.7389,-6.7319,-6.7433,-6.7446,-6.7509,-6.7499,-6.7504,-6.7914,-6.792,-6.8114,-6.8213,0,0,0,-6.7196,-6.7243,-6.7267,-6.7275,-6.7319,-6.7385,-6.7386,-6.7434,-6.7435,-6.7496,-6.7504,-6.7912,-6.7919,-6.8103,-6.8194,-6.8341,0,0,0,-6.7226,-6.7447,-6.7271,-6.751,-6.7318,-6.7512,-6.7384,-6.7525,-6.7602,-6.75,-6.7915,-6.7922,-6.8099,-6.8182,-6.8329,-6.8474,-6.854,0,0,-6.7536,-6.7486,-6.7622,-6.7468,-6.7707,-6.7493,-6.7762,-6.7777,-6.773,-6.7862,-6.7872,-6.8118,-6.8193,-6.8339,-6.8895,-6.8948,0,0,0,-6.774,-6.7838,-6.7889,-6.7965,-6.7984,-6.8007,-6.7975,-6.7981,-6.809,-6.781,-6.821,-6.8253,-6.8336,-6.8402,-6.8448,-6.8514,-6.7956,-6.7955,-6.7954,-6.8259,-6.8188,-6.8408,-6.835,-6.8425,-6.8391,-6.8445,-6.8447,-6.8353,-6.8449,-6.8487,-6.8833,-6.8913,-6.8947,-6.9018,-6.8559,-6.856,-6.8561,-6.8561,-6.8705,-6.8832,-6.8703,-6.887,-6.8794,-6.8933,-6.891,-6.8839,-6.8956,-6.8799,-6.8868,-6.8701,-6.9007,-6.9065,-6.8576,-6.8574,-6.8572,-6.857,-6.8569,-6.9035,-6.9083,-6.9088,-6.9191,-6.9279,-6.9211,-6.9331,-6.9257,-6.9189,-6.9258,-6.9289,-6.9286,-6.9271,-6.9279,-6.928,-6.9281,-6.9282,-6.9283,-6.9284,-6.9374,-6.9373,-6.9483,-6.9522,-6.9561,-6.9604,-6.9574,-6.961,-6.9631,-6.9568,-6.9568,-6.9464,-6.9052,-6.8948,-6.9302,-6.9299,-6.9297,-6.9295,-6.9294,-6.9848,-6.9729,-6.9899,-6.9939,-6.9979,-7.0071,-6.9977,-7.0058,-7.0077,-7.0139,-7.0021,-6.9728,-6.9671,-6.9635,-6.9548,-7.0036,-7.0036,-7.0036,-7.0036,-7.0124,-7.0089,-7.0246,-7.0315,-7.0374,-7.0306,-7.05,-7.0479,-7.0439,-7.0447,-7.0366,-7.0246,-7.0213,-7.0175,-7.0127,-7.0045,-7.0648,-7.0649,-7.0649,-7.0411,-7.0378,-7.0557,-7.0517,-7.0543,-7.0567,-7.0747,-7.083,-7.076,-7.0673,-7.0451,-7.0425,-7.023,-7.0171,-7.0076,-7.0003,-6.9851,0,0]},{"header":{"parameterUnit":"m.s-1","parameterCategory":1,"la1":30.2992,"la2":30.254,"lo1":-89.0895,"lo2":-89.0443,"dy":0.0025,"dx":0.0025,"nx":19,"ny":19,"refTime":"2026-03-30T03:00:00:Z","depth":0,"parameterNumber":3,"parameterNumberName":"V-component_of_WINDS"},"data":[0,0,0,0.5197,0.5196,0.5136,0.5135,0.5074,0.5073,0,0,0,0,0,0,0,0,0,0,0,0.5223,0.5223,0.5197,0.5196,0.5136,0.5135,0.5074,0.5073,0,0,0,0,0,0,0,0,0,0,0,0.5223,0.5223,0.5223,0.5195,0.5136,0.5135,0.5074,0.5114,0,0,0,0,0,0,0,0,0,0,0.517,0.5202,0.5223,0.5223,0.5195,0.5136,0.5135,0.5116,0.5111,0.5107,0,0.5106,0,0.5089,0.507,0.507,0,0,0,0.5189,0.5206,0.5182,0.5223,0.5195,0.5136,0.5161,0.5113,0.5108,0.5102,0.5105,0.5102,0.5088,0.507,0.507,0.507,0.507,0,0,0.5192,0.5217,0.5185,0.5179,0.5189,0.5163,0.5159,0.511,0.5115,0.5105,0.51,0.5087,0.507,0.5069,0.5069,0.507,0,0,0,0.5206,0.522,0.5196,0.5182,0.517,0.5161,0.5157,0.5117,0.5107,0.51,0.5086,0.5069,0.5069,0.5069,0.507,0.511,0,0,0,0.5208,0.5228,0.5198,0.5213,0.5172,0.5143,0.5165,0.5111,0.5104,0.5086,0.5069,0.5068,0.5069,0.5069,0.5108,0.5124,0,0,0,0.5224,0.5229,0.5224,0.5214,0.519,0.5143,0.513,0.5109,0.5097,0.507,0.5068,0.5068,0.5069,0.5106,0.5121,0.5132,0,0,0,0.5248,0.5259,0.5225,0.5232,0.519,0.5168,0.513,0.5113,0.5095,0.5069,0.5069,0.5069,0.5105,0.5119,0.5131,0.5146,0.5155,0,0,0.5276,0.5263,0.5266,0.5233,0.5224,0.5176,0.5172,0.5132,0.5106,0.5084,0.5083,0.5108,0.5121,0.5132,0.5195,0.5202,0,0,0,0.5283,0.5285,0.5277,0.5261,0.5232,0.5208,0.5166,0.5151,0.5131,0.51,0.5114,0.5121,0.5126,0.5133,0.5139,0.5142,0.5073,0.5073,0.5073,0.5356,0.5324,0.5326,0.5288,0.5274,0.5232,0.5217,0.5191,0.5161,0.5166,0.5158,0.52,0.5209,0.5213,0.5217,0.5164,0.5164,0.5164,0.5164,0.5394,0.5392,0.5355,0.5344,0.5311,0.5301,0.5261,0.5242,0.5228,0.5203,0.5206,0.5181,0.5222,0.5224,0.5167,0.5166,0.5166,0.5166,0.5166,0.5438,0.5432,0.5415,0.5391,0.5377,0.5337,0.5327,0.5297,0.5268,0.5271,0.5261,0.526,0.5256,0.5269,0.5269,0.5269,0.5269,0.5269,0.5269,0.5491,0.5471,0.5466,0.5437,0.5425,0.5404,0.5364,0.535,0.5328,0.5307,0.5307,0.5278,0.5232,0.5221,0.5271,0.5271,0.5271,0.527,0.527,0.5541,0.5526,0.5518,0.5506,0.5471,0.5459,0.5421,0.5398,0.5382,0.5378,0.535,0.532,0.5305,0.53,0.5291,0.5356,0.5356,0.5356,0.5356,0.5579,0.5569,0.5555,0.5538,0.5517,0.5483,0.5477,0.5447,0.5412,0.5401,0.5388,0.5373,0.5369,0.5356,0.535,0.5341,0.5417,0.5417,0.5417,0.5609,0.5596,0.5595,0.5563,0.5534,0.551,0.5503,0.5485,0.5443,0.5419,0.5392,0.539,0.5366,0.5359,0.5334,0.5325,0.5308,0,0]}]]